Погода в Бишкеке

Погода в Бишкеке : погода сейчас, прогноз погоды и архив. Всё, что Вы хотите узнать о погоде в Бишкеке!

Поиск расширенной информации на нашем сайте:

Другие новости

Новости СМИ2

Главная страница сайта

Новости сайта

03.07.2017

Напоминаем, что на нашем специализированном сайте Метеоцентр.Азия вы можете получить высокодетализированные автоматические прогнозы погоды по пунктам России, СНГ и мира в авиационном формате (включающие направление и скорость ветра, видимость, явления погоды, количество и форму облачности, нижнюю и верхнюю границу облачности).

Рекомендуем: Закажи скорее ремонт двухкомнатной квартиры у нас и получи смету бесплатно.

Погода в Бишкеке - сегодня

Время (UTC), дата Ветер
(°,м/с) 
Видим.   Явления Облачность Т
(°С)
Тd
(°С)
f(%) Тe
(°С)
Pmin
(гПа)
dP
(гПа)
Po
(мм)
O2
(г/м3)
Тmin Tmax R s Состояние
почвы
00 16.02.18 170 (Ю) н/о    8/0 средняя 
[Ac lent]
-7.1 -8.4 90 -7  1039.2  -0.3  708  294           
03 16.02.18 220 (ЮЗ) 0500 м  туман  ?/?  
-7.8 -8.4 95 -8  1040.8  1.2  709  295           
06 16.02.18 270 (З) 0500 м  туман  ?/?  
-5.2 -6.2 93 -5  1040.5  0.6  709  292           
09 16.02.18 310 (СЗ) 4000 м  дымка  10/0 средняя 
[As trans]
-4 -4.9 93 -4  1039.4  -0.6  709  290           
12 16.02.18 360 (С) 4000 м  дымка{туман}  10/0 средняя 
[Ac trans]
-4.2 -5.8 89 -4  1039.4  709  291           
15 16.02.18 040 (СВ) н/о    10/0 средняя 
[Ac trans]
-5 -6.3 91 -6  1039.7  709  292    -2.5       
18 16.02.18 360 (С) н/о    10/0 средняя 
[Ac trans]
-5.4 -6.4 93 -5  1039.1  -0.8  708  292    -2.5       
21 16.02.18 тихо ()   н/о    10/0 
[]
-5.9 -7 92 -6    -0.6             
00 17.02.18 тихо ()   н/о    10/0 средняя 
[Ac trans]
-6 -7.5 89 -6  1037.9  -0.6  707  292           
03 17.02.18 тихо ()   н/о  переохл. туман  ?/?  
-7.9 -8.9 93 -8  1039.4  0.7  708  295           
06 17.02.18 тихо ()   1000 м  дымка{туман}  10/0 средняя, верхняя 
[Ac trans|Ci fib]
-2.4 -4.6 85 -2  1036.3  -1  707  288           
09 17.02.18 280 (З) 4000 м  дымка  10/0 средняя 
[Ac trans]
-4.5 -6.5 86 -4  1037.6  0.5  708  290           
12 17.02.18 350 (С) 4000 м  слаб. снег  10/0 средняя 
[As op]
-3.7 -5.2 89 -3  1036.8  -0.4  707  289           
15 17.02.18 350 (С) н/о    10/0 средняя 
[Ac trans]
-4.7 -6.4 88 -4  1036.7  -0.5  707  290    -2.2       
18 17.02.18 тихо ()   н/о  {снег}  10/0 средняя 
[Ac trans]
-5.1 -6.5 90 -5  1035.5  -1.2  706  290    -2.2  0.2     
21 17.02.18 тихо ()   н/о    10/4 600 м средняя 
[Sc|Ac trans]
-5.7 -6.8 92 -6  1034.9  -0.8  705  291           
00 18.02.18 220 (ЮЗ) н/о    10/6 600 м средняя 
[Sc|Ac trans]
-7 -7.9 93 -7  1034.4  -0.9  705  292           
03 18.02.18 270 (З) 0500 м  туман  ?/?  
-6.8 -7.3 96 -6  1034.5  0.2  705  292           
06 18.02.18 270 (З) 4000 м  слаб. снег{туман}  10/10 600 м 
[Sc]
-7.1 -8.4 90 -7  1034.4  -0.2  705  292           
09 18.02.18 300 (СЗ) 10 км  в посл. час снег  10/10 600 м 
[Sc]
-6.7 -8.3 88 -6  1034.7  0.4  705  292           
12 18.02.18 360 (С) 4000 м  слаб. снег  10/10 600 м 
[Sc]
-6.7 -8.3 88 -6  1036.4  1.5  706  292           
15 18.02.18 тихо ()   н/о  слаб. снег  10/10 600 м 
[Sc]
-7.2 -8.5 90 -7  1037.8  1.1  707  293    -5       
18 18.02.18 тихо ()   н/о  слаб. снег  10/10 600 м 
[Sc]
-7.6 -8.9 90 -8  1037.9  -0.1  707  294    -5  0.3     
21 18.02.18 тихо ()   н/о    ясно 
-9.4 -10.6 91 -9  1038.2  -0.2  707  296           
00 19.02.18 090 (В) н/о  {снег}  ясно 
-7.9 -10.6 81 -11  1036.9  -0.7  706  294           
Время (UTC), дата Ветер
(°,м/с) 
Видим.   Явления Облачность Т
(°С)
Тd
(°С)
f(%) Тe
(°С)
Pmin
(гПа)
dP
(гПа)
Po
(мм)
O2
(г/м3)
Тmin Tmax R s Состояние
почвы

Для получения пояснительной информации подведите курсор к названию столбца.

ПОГОДА в Бишкеке - архив

Всё, что Вы хотите узнать о погоде в Бишкеке - удобно и подробно!

Выберите нужную дату (начиная с 1 января 2015* года) и нажмите кнопку "Найти".
Будут отображены архивные сводки погоды по пункту Бишкек, начиная с указанной даты.


Отображать данные в формате CSV (для использования в таблицах Excel)


Внимание! Наш архив погоды предназначен исключительно для личного некоммерческого использования в познавательных целях. Если Вам необходимы официальные справки о состоянии погоды (для производственных, юридических, коммерческих и т.п. целей), обращайтесь в органы Росгидромета.

*Примечание: данная дата относится к архиву по метеостанциям СССР (Россия, СНГ, Балтия).
Архив по метеостанциям Зарубежной Европы и Азии (кроме Китая) хранится 10 дней, по другим регионам земного шара (Китай, Африка, Америка, Австралия, Океания) - 1 день.

Бишкек - район местоположения метеостанции


Название, широта, долгота, высота метеостанции:
Бишкек (город) 42.9°ш. 74.5°д. 760 м над ур. моря [Кыргызстан]

Дополнительная информация

В oтличие oт бoльшинства пoгoдных сайтoв мы публикуем пoдрoбную метеoинфoрмацию в детальнoм прoфессиoнальнoм фoрмате.

Характеристики температуры и влажнoсти вoздуха измеряются на высoте 2 м в тени вдали oт зданий и деревьев.
Скoрoсть ветра измеряется на высoте 10 м (на урoвне рoста челoвека скoрoсть ветра ниже в 1.5-2 раза). Если метеoстанция нахoдится в гoрoде или в лесу, тo скoрoсть ветра занижена на 2-4 м/с пo сравнению с oткрытым местoм. Скoрoсть ветра над акватoриями крупных рек и oзёр, а также на вершинах хoлмoв на 2-5 м/с выше, чем в oбычных услoвиях.
Атмoсфернoе давление в разных тoчках местнoсти мoжет значительнo oтличаться oт давления на метеoстанции, в зависимoсти oт услoвий рельефа (при пoдъёме на 10 м давление пoнижается примернo на 1 мм рт.ст.).